• în România
  • Lista ţărilor
  • Pe 7 zile
  • Temperatura apei
  • Hartă satelitară
  • Meteo pe hartă
  • Widget-uri
  • user-avatar
    Intrare

    Meteo pe oră la Nachiczewan

    Astăzi, 21 Iulie, Sâmbătă

    Timp Temperatura Precipitaţii Vânt Presiune Umiditate
    00:00 +29°C° 0 mm 3 m/s 682 mmHg 37%
    01:00 +29°C° 0 mm 2 m/s 682 mmHg 39%
    02:00 +28°C° 0 mm 2 m/s 682 mmHg 41%
    03:00 +28°C° 0 mm 2 m/s 682 mmHg 44%
    04:00 +28°C° 0 mm 2 m/s 682 mmHg 44%
    05:00 +28°C° 0 mm 2 m/s 682 mmHg 44%
    06:00 +28°C° 0 mm 2 m/s 683 mmHg 44%
    07:00 +29°C° 0 mm 2 m/s 683 mmHg 39%
    08:00 +31°C° 0 mm 2 m/s 683 mmHg 34%
    09:00 +33°C° 0 mm 3 m/s 683 mmHg 29%
    10:00 +34°C° 0 mm 2 m/s 683 mmHg 26%
    11:00 +35°C° 0 mm 2 m/s 683 mmHg 22%
    12:00 +37°C° 0 mm 2 m/s 683 mmHg 18%
    13:00 +37°C° 0 mm 2 m/s 683 mmHg 17%
    14:00 +38°C° 0 mm 3 m/s 683 mmHg 16%
    15:00 +39°C° 0 mm 3 m/s 682 mmHg 15%
    16:00 +38°C° 0 mm 3 m/s 682 mmHg 16%
    17:00 +38°C° 0 mm 4 m/s 682 mmHg 17%
    18:00 +37°C° 0 mm 4 m/s 682 mmHg 19%
    19:00 +35°C° 0 mm 4 m/s 682 mmHg 25%
    20:00 +34°C° 0 mm 3 m/s 683 mmHg 31%
    21:00 +31°C° 0 mm 3 m/s 683 mmHg 37%
    22:00 +30°C° 0 mm 3 m/s 683 mmHg 41%
    23:00 +29°C° 0 mm 3 m/s 683 mmHg 45%

    Mâine, 22 Iulie, Duminică

    Timp Temperatura Precipitaţii Vânt Presiune Umiditate
    00:00 +28°C° 0 mm 3 m/s 683 mmHg 50%
    01:00 +28°C° 0 mm 2 m/s 683 mmHg 52%
    02:00 +27°C° 0 mm 2 m/s 683 mmHg 54%
    03:00 +27°C° 0 mm 2 m/s 683 mmHg 56%
    04:00 +27°C° 0 mm 2 m/s 683 mmHg 56%
    05:00 +27°C° 0 mm 2 m/s 683 mmHg 55%
    06:00 +27°C° 0 mm 2 m/s 683 mmHg 55%
    07:00 +28°C° 0 mm 2 m/s 684 mmHg 49%
    08:00 +29°C° 0 mm 2 m/s 684 mmHg 44%
    09:00 +31°C° 0 mm 2 m/s 684 mmHg 38%
    10:00 +33°C° 0 mm 3 m/s 684 mmHg 34%
    11:00 +34°C° 0 mm 3 m/s 683 mmHg 31%
    12:00 +36°C° 0 mm 3 m/s 683 mmHg 27%
    13:00 +36°C° 0 mm 3 m/s 683 mmHg 25%
    14:00 +37°C° 0 mm 4 m/s 683 mmHg 23%
    15:00 +38°C° 0 mm 4 m/s 683 mmHg 21%
    16:00 +37°C° 0,1 mm 5 m/s 682 mmHg 24%
    17:00 +36°C° 0,1 mm 5 m/s 682 mmHg 26%
    18:00 +35°C° 0,1 mm 5 m/s 682 mmHg 28%
    19:00 +34°C° 0,1 mm 5 m/s 682 mmHg 32%
    20:00 +32°C° 0,1 mm 4 m/s 682 mmHg 37%
    21:00 +30°C° 0,1 mm 3 m/s 682 mmHg 41%
    22:00 +29°C° 0 mm 3 m/s 683 mmHg 44%
    23:00 +28°C° 0 mm 2 m/s 683 mmHg 46%

    Poimâine, 23 Iulie, Luni

    Timp Temperatura Precipitaţii Vânt Presiune Umiditate
    00:00 +28°C° 0 mm 2 m/s 683 mmHg 48%
    01:00 +27°C° 0 mm 2 m/s 683 mmHg 49%
    02:00 +27°C° 0 mm 2 m/s 682 mmHg 50%
    03:00 +26°C° 0 mm 2 m/s 682 mmHg 51%
    04:00 +26°C° 0 mm 2 m/s 683 mmHg 50%
    05:00 +27°C° 0 mm 2 m/s 683 mmHg 49%
    06:00 +27°C° 0 mm 2 m/s 683 mmHg 49%
    07:00 +28°C° 0 mm 2 m/s 683 mmHg 44%
    08:00 +29°C° 0 mm 2 m/s 683 mmHg 40%
    09:00 +31°C° 0 mm 2 m/s 683 mmHg 36%
    10:00 +32°C° 0 mm 2 m/s 682 mmHg 32%
    11:00 +34°C° 0 mm 2 m/s 682 mmHg 29%
    12:00 +36°C° 0 mm 2 m/s 682 mmHg 26%
    13:00 +36°C° 0,1 mm 3 m/s 682 mmHg 24%
    14:00 +37°C° 0,1 mm 3 m/s 682 mmHg 22%
    15:00 +38°C° 0,1 mm 3 m/s 681 mmHg 21%
    16:00 +36°C° 0,3 mm 3 m/s 681 mmHg 26%
    17:00 +34°C° 0,3 mm 3 m/s 681 mmHg 32%
    18:00 +33°C° 0,3 mm 3 m/s 681 mmHg 38%
    19:00 +31°C° 0 mm 3 m/s 681 mmHg 39%
    20:00 +31°C° 0 mm 2 m/s 682 mmHg 40%
    21:00 +30°C° 0 mm 2 m/s 682 mmHg 42%
    22:00 +29°C° 0 mm 2 m/s 683 mmHg 43%
    23:00 +29°C° 0 mm 2 m/s 683 mmHg 45%

    24 Iulie, Marţi

    Timp Temperatura Precipitaţii Vânt Presiune Umiditate
    00:00 +28°C° 0 mm 2 m/s 683 mmHg 47%
    01:00 +28°C° 0 mm 2 m/s 683 mmHg 48%
    02:00 +27°C° 0 mm 2 m/s 683 mmHg 49%
    03:00 +27°C° 0 mm 2 m/s 682 mmHg 50%
    04:00 +27°C° 0 mm 2 m/s 683 mmHg 49%
    05:00 +27°C° 0 mm 1 m/s 683 mmHg 48%
    06:00 +27°C° 0 mm 1 m/s 683 mmHg 47%
    07:00 +29°C° 0 mm 1 m/s 683 mmHg 42%
    08:00 +30°C° 0 mm 1 m/s 683 mmHg 36%
    09:00 +31°C° 0 mm 1 m/s 684 mmHg 31%
    10:00 +33°C° 0 mm 1 m/s 683 mmHg 28%
    11:00 +35°C° 0 mm 2 m/s 683 mmHg 25%
    12:00 +37°C° 0 mm 2 m/s 683 mmHg 22%
    13:00 +37°C° 0 mm 2 m/s 683 mmHg 21%
    14:00 +38°C° 0 mm 2 m/s 683 mmHg 19%
    15:00 +39°C° 0 mm 2 m/s 683 mmHg 18%
    16:00 +39°C° 0 mm 3 m/s 683 mmHg 18%
    17:00 +38°C° 0 mm 3 m/s 683 mmHg 19%
    18:00 +38°C° 0 mm 3 m/s 683 mmHg 19%
    19:00 +36°C° 0 mm 3 m/s 684 mmHg 24%
    20:00 +35°C° 0 mm 3 m/s 684 mmHg 28%
    21:00 +32°C° 0 mm 2 m/s 684 mmHg 33%
    22:00 +31°C° 0 mm 2 m/s 684 mmHg 35%
    23:00 +31°C° 0 mm 2 m/s 684 mmHg 38%

    25 Iulie, Miercuri

    Timp Temperatura Precipitaţii Vânt Presiune Umiditate
    00:00 +30°C° 0 mm 2 m/s 684 mmHg 40%
    01:00 +29°C° 0 mm 2 m/s 684 mmHg 41%
    02:00 +29°C° 0 mm 2 m/s 684 mmHg 42%
    03:00 +28°C° 0 mm 2 m/s 684 mmHg 42%
    04:00 +29°C° 0 mm 2 m/s 684 mmHg 42%
    05:00 +29°C° 0 mm 2 m/s 685 mmHg 41%
    06:00 +29°C° 0 mm 1 m/s 685 mmHg 40%
    07:00 +31°C° 0 mm 1 m/s 685 mmHg 36%
    08:00 +32°C° 0 mm 1 m/s 685 mmHg 32%
    09:00 +34°C° 0 mm 1 m/s 685 mmHg 28%
    10:00 +37°C° 0 mm 2 m/s 685 mmHg 25%
    11:00 +38°C° 0 mm 2 m/s 685 mmHg 22%
    12:00 +39°C° 0 mm 2 m/s 684 mmHg 19%
    13:00 +40°C° 0 mm 3 m/s 684 mmHg 18%
    14:00 +42°C° 0 mm 3 m/s 684 mmHg 17%
    15:00 +43°C° 0 mm 3 m/s 684 mmHg 16%
    16:00 +43°C° 0 mm 4 m/s 684 mmHg 17%
    17:00 +42°C° 0 mm 4 m/s 683 mmHg 18%
    18:00 +42°C° 0 mm 4 m/s 683 mmHg 19%
    19:00 +40°C° 0 mm 4 m/s 684 mmHg 23%
    20:00 +37°C° 0 mm 4 m/s 684 mmHg 27%
    21:00 +35°C° 0 mm 3 m/s 684 mmHg 31%
    22:00 +34°C° 0 mm 3 m/s 684 mmHg 33%
    23:00 +33°C° 0 mm 3 m/s 684 mmHg 35%

    26 Iulie, Joi

    Timp Temperatura Precipitaţii Vânt Presiune Umiditate
    00:00 +32°C° 0 mm 2 m/s 684 mmHg 37%
    01:00 +31°C° 0 mm 2 m/s 683 mmHg 38%
    02:00 +31°C° 0 mm 2 m/s 683 mmHg 40%
    03:00 +30°C° 0 mm 2 m/s 683 mmHg 41%
    04:00 +31°C° 0 mm 2 m/s 683 mmHg 39%
    05:00 +31°C° 0 mm 2 m/s 684 mmHg 38%
    06:00 +31°C° 0 mm 2 m/s 684 mmHg 37%
    07:00 +34°C° 0 mm 2 m/s 684 mmHg 33%
    08:00 +36°C° 0 mm 2 m/s 684 mmHg 29%
    09:00 +37°C° 0 mm 2 m/s 684 mmHg 25%
    10:00 +39°C° 0 mm 3 m/s 684 mmHg 22%
    11:00 +42°C° 0 mm 4 m/s 684 mmHg 19%
    12:00 +45°C° 0 mm 5 m/s 684 mmHg 16%
    13:00 +45°C° 0 mm 5 m/s 683 mmHg 14%
    14:00 +46°C° 0 mm 5 m/s 683 mmHg 13%
    15:00 +47°C° 0 mm 6 m/s 683 mmHg 12%
    16:00 +46°C° 0 mm 6 m/s 683 mmHg 13%
    17:00 +46°C° 0 mm 6 m/s 683 mmHg 14%
    18:00 +45°C° 0 mm 6 m/s 683 mmHg 16%
    19:00 +42°C° 0 mm 5 m/s 683 mmHg 19%
    20:00 +40°C° 0 mm 4 m/s 683 mmHg 23%
    21:00 +37°C° 0 mm 4 m/s 683 mmHg 27%
    22:00 +36°C° 0 mm 3 m/s 683 mmHg 29%
    23:00 +35°C° 0 mm 3 m/s 683 mmHg 31%
    Arată mai mult